This is the latest recevied weather packets stored in our database for station/object N0OQA. If no packets are shown the sender has not sent any weather packets the latest 10 day(s).
| Time | Temp. | Humidity | Pressure | Rain* | Wind** | Luminosity | Snow |
|---|---|---|---|---|---|---|---|
| 1788120543 | 26.67° C | 73% | 1011 hPa | 0 mm | - | - | - |
| 1788120243 | 26.67° C | 72% | 1010.9 hPa | 0 mm | - | - | - |
| 1788119942 | 26.67° C | 72% | 1011 hPa | 0 mm | - | - | - |
| 1788119642 | 26.67° C | 73% | 1011.1 hPa | 0 mm | - | - | - |
| 1788119342 | 26.67° C | 74% | 1011.3 hPa | 0 mm | - | - | - |
| 1788119042 | 26.67° C | 75% | 1011.2 hPa | 0 mm | - | - | - |
| 1788118742 | 26.11° C | 74% | 1011 hPa | 0 mm | - | - | - |
| 1788118141 | 26.11° C | 75% | 1011.6 hPa | 0 mm | - | - | - |
| 1788117841 | 26.11° C | 75% | 1011.6 hPa | 0 mm | - | - | - |
| 1788117540 | 26.11° C | 75% | 1011.7 hPa | 0 mm | - | - | - |
| 1788117240 | 26.11° C | 76% | 1012 hPa | 0 mm | - | - | - |
| 1788116956 | 26.11° C | 78% | 1012 hPa | 0 mm | - | - | - |
| 1788116639 | 25.56° C | 80% | 1012.1 hPa | 0 mm | - | - | - |
| 1788116339 | 25° C | 81% | 1012.3 hPa | 0 mm | - | - | - |
| 1788116039 | 25° C | 82% | 1012.3 hPa | 0 mm | - | - | - |
| 1788115438 | 24.44° C | 83% | 1012.5 hPa | 0 mm | - | - | - |
| 1788115138 | 24.44° C | 83% | 1012.4 hPa | 0 mm | - | - | - |
| 1788114838 | 24.44° C | 83% | 1012.5 hPa | 0 mm | - | - | - |
| 1788114537 | 24.44° C | 83% | 1012.5 hPa | 0 mm | - | - | - |
| 1788113636 | 23.89° C | 85% | 1012.4 hPa | 0 mm | - | - | - |
| 1788113336 | 23.89° C | 87% | 1012.5 hPa | 0 mm | - | - | - |
| 1788113036 | 23.33° C | 87% | 1012.5 hPa | 0 mm | - | - | - |
| 1788112736 | 23.33° C | 87% | 1012.5 hPa | 0 mm | - | - | - |
| 1788112135 | 22.78° C | 87% | 1012.4 hPa | 0 mm | - | - | - |
| 1788111835 | 23.33° C | 87% | 1012.5 hPa | 0 mm | - | - | - |
* Rain since midnight (hover to see other rain measurements)
** Current wind speed in m/s (hover to see current wind gust speed)